TimeMST,TemperatureF,Dew PointF,Humidity,Sea Level PressureIn,VisibilityMPH,Wind Direction,Wind SpeedMPH,Gust SpeedMPH,PrecipitationIn,Events,Conditions,WindDirDegrees,DateUTC
12:51 AM,52.0,42.1,69,29.86,10.0,SW,10.4,-,N/A,,Mostly Cloudy,220,2013-01-27 07:51:00
1:51 AM,55.0,42.1,62,29.83,10.0,WSW,8.1,-,N/A,,Mostly Cloudy,250,2013-01-27 08:51:00
2:51 AM,52.0,41.0,66,29.84,10.0,SSW,8.1,-,N/A,,Mostly Cloudy,200,2013-01-27 09:51:00
3:51 AM,50.0,41.0,71,29.83,10.0,WSW,5.8,-,N/A,,Partly Cloudy,240,2013-01-27 10:51:00
4:51 AM,46.0,39.0,76,29.83,10.0,SSW,4.6,-,N/A,,Partly Cloudy,210,2013-01-27 11:51:00
5:51 AM,48.9,39.0,69,29.83,10.0,SSW,12.7,-,N/A,,Clear,210,2013-01-27 12:51:00
6:51 AM,45.0,37.9,76,29.86,10.0,SW,9.2,-,N/A,,Partly Cloudy,220,2013-01-27 13:51:00
7:51 AM,53.1,37.9,57,29.85,10.0,SSW,11.5,-,N/A,,Partly Cloudy,210,2013-01-27 14:51:00
8:51 AM,57.0,37.9,49,29.86,10.0,SW,13.8,-,N/A,,Clear,230,2013-01-27 15:51:00
9:51 AM,66.0,35.1,32,29.85,10.0,SW,15.0,-,N/A,,Clear,230,2013-01-27 16:51:00
11:51 AM,71.1,30.9,23,29.80,10.0,SW,16.1,24.2,N/A,,Clear,230,2013-01-27 18:51:00
12:51 PM,71.1,30.9,23,29.77,10.0,SW,18.4,27.6,N/A,,Clear,230,2013-01-27 19:51:00
1:51 PM,72.0,30.0,21,29.74,10.0,WSW,21.9,28.8,N/A,,Clear,240,2013-01-27 20:51:00
2:51 PM,71.1,28.9,21,29.75,10.0,WSW,15.0,27.6,N/A,,Clear,240,2013-01-27 21:51:00
3:51 PM,70.0,28.9,22,29.75,10.0,West,16.1,-,N/A,,Clear,270,2013-01-27 22:51:00
4:51 PM,66.9,30.0,25,29.78,10.0,WSW,11.5,-,N/A,,Clear,240,2013-01-27 23:51:00
5:51 PM,62.1,32.0,32,29.81,10.0,SSW,9.2,-,N/A,,Partly Cloudy,210,2013-01-28 00:51:00
6:51 PM,57.9,32.0,37,29.85,10.0,SW,10.4,-,N/A,,Clear,220,2013-01-28 01:51:00
7:51 PM,52.0,30.9,45,29.85,10.0,SW,9.2,-,N/A,,Clear,220,2013-01-28 02:51:00
8:51 PM,52.0,32.0,47,29.84,10.0,WSW,8.1,-,N/A,,Clear,240,2013-01-28 03:51:00
9:51 PM,45.0,30.0,56,29.83,10.0,South,8.1,-,N/A,,Clear,180,2013-01-28 04:51:00
10:51 PM,48.9,34.0,56,29.83,10.0,SSW,9.2,-,N/A,,Clear,200,2013-01-28 05:51:00
11:51 PM,48.0,34.0,58,29.81,10.0,WSW,6.9,-,N/A,,Clear,250,2013-01-28 06:51:00